#timestamp,LO_Frequency,Hit,StdDev 
1579623595.4,286047020.2,P
1579623615.2,286047017.4,P
1579623635.0,286047019.3,P
1579623636.0,286047019.3,Y
1579623655.8,286047000.4,P
1579623675.6,286047000.4,N
1579623695.5,286047002.3,N
1579623715.3,286047001.5,N
1579623735.1,286047002.4,N
1579623755.9,286047002.3,N
1579623775.7,286046999.7,N
1579623795.6,286047002.4,N
1579623815.4,286046999.9,N
1579623835.2,286046999.7,N
1579623855.1,286047000.1,N
1579623856.0,286047000.1,N
1579623875.8,286047002.6,N
1579623895.6,286047002.5,N
1579623915.5,286047002.1,N
1579623935.3,286047000.1,N
1579623955.2,286047002.3,N
1579623975.9,286047001.5,N
1579623995.7,286047001.9,N
1579624015.6,286047002.5,N
1579624035.4,286047002.6,N
1579624055.2,286047002.4,N
1579624075.1,286046999.9,N
1579624076.0,286046999.9,N
1579624095.8,286047000.3,N
1579624115.6,286046998.6,N
1579624135.5,286046999.0,N
1579624155.3,286046999.4,N
1579624175.2,286046998.8,N
1579624195.9,286046998.2,N
1579624215.7,286046998.4,N
1579624235.6,286046999.0,N
1579624255.4,286046996.6,N
1579624275.2,286046999.3,N
1579624295.1,286046998.8,N
1579624296.0,286046998.8,N
1579624315.8,286047001.2,N
1579624335.7,286047002.5,N
1579624355.5,286047002.4,N
1579624375.3,286047002.6,N
1579624395.2,286046999.7,N
1579624415.0,286047000.3,N
1579624415.9,286047000.3,N
1579624435.8,286046999.7,N
1579624455.6,286047002.4,N
1579624475.4,286047003.5,N
1579624495.3,286047005.4,Y
1579624515.1,286047004.5,P
1579624535.8,286047005.5,N
1579624555.7,286047003.0,N
1579624575.5,286047005.1,N
1579624595.4,286047003.0,N
1579624615.2,286047005.8,Y
1579624635.0,286047000.1,P
1579624635.9,286047000.1,N
1579624655.8,286047000.9,N
1579624675.6,286047000.0,N
1579624695.4,286047000.2,N
1579624715.3,286046999.7,N
1579624735.1,286047000.1,N
1579624755.9,286047001.4,N
1579624775.7,286047001.9,N
1579624795.5,286047001.8,N
1579624815.4,286047001.4,N
1579624835.2,286047002.9,N
1579624855.1,286047004.9,Y
1579624856.0,286047004.9,P
1579624875.8,286047007.0,P
1579624895.6,286047009.1,P
1579624915.5,286047008.5,N
1579624935.3,286047010.6,Y
1579624955.1,286047001.3,P
1579624975.9,286047004.2,N
1579624995.7,286047004.0,N
1579625015.6,286047002.8,N
1579625035.4,286047001.9,N
1579625055.2,286047003.2,N
1579625075.1,286047005.3,Y
1579625076.0,286047005.3,P
1579625095.8,286047002.5,N
1579625115.7,286047004.2,P
1579625135.5,286047001.7,N
1579625155.3,286047001.3,N
1579625175.2,286047003.7,N
1579625195.0,286047005.5,Y
1579625195.9,286047005.5,P
1579625215.8,286047002.1,N
1579625235.6,286047001.5,N
1579625255.4,286047004.1,N
1579625275.3,286047003.5,N
1579625295.1,286047004.4,Y
1579625315.8,286047000.2,P
1579625335.7,286047002.3,N
1579625355.5,286047002.0,N
1579625375.4,286047001.8,N
1579625395.2,286047003.1,Y
1579625415.0,286047002.8,P
1579625415.9,286047002.8,P
1579625435.8,286047001.7,P
1579625455.6,286047004.9,Y
1579625475.5,286047004.2,P
1579625495.3,286047004.1,P
1579625515.1,286047003.1,P
1579625535.9,286047004.0,Y
1579625555.7,286047002.3,P
1579625575.5,286047001.5,N
1579625595.4,286047001.6,N
1579625615.2,286047001.5,N
1579625635.1,286047003.5,Y
1579625636.0,286047003.5,P
1579625655.8,286047001.6,N
1579625675.6,286047002.0,N
1579625695.5,286047000.1,N
1579625715.3,286047002.6,N
1579625735.2,286047002.1,N
1579625755.9,286047001.8,N
1579625775.7,286047001.9,N
1579625795.6,286047002.3,N
1579625815.4,286047000.1,N
1579625835.2,286047002.4,N
1579625855.1,286047002.4,N
1579625856.0,286047002.4,N
1579625875.8,286047002.7,Y
1579625895.7,286046998.7,P
1579625915.5,286047000.3,N
1579625935.3,286046999.8,N
1579625955.2,286047002.0,N
1579625975.0,286047001.7,N
1579625975.9,286047001.7,N
1579625995.8,286047004.3,Y
